カタログに戻る

CZ-4B DEB

運用中SSO
NORAD 38315·DEBRIS·🇨🇳 China

打ち上げ Aug 15, 2011 から Taiyuan Satellite Launch Center

Loading…

次のパス (今後24時間)

TLE

経年Source: Space-Track

元期: Sep 11, 2026, 01:54 UTC

1 38315U 11043E   26254.07961818  .00000167  00000-0  27457-3 0  9990
2 38315  99.8699 189.5539 0216582 125.1277 237.0367 13.52445302640211

AllMySatでCZ-4B DEBをリアルタイム追跡

Download on the App Store